Location: Aghk�ilisa
(40.0189°N, 45.0097°E)
Time: 17:52:20
(UTC+00:00)

Cosmos 2173 Rocket - Pass Details

Date: 21 October 2019
Orbit: 944 x 1001 km, 83.0° (Epoch: 16 November)

Event Time Altitude Azimuth Distance (km) Brightness Sun altitude
Rises 15:36:38 0° 358° (N) 3,686 7.1 -16.8°
Reaches altitude 10° 15:39:17 10° 5° (N) 2,726 6.3 -17.3°
Maximum altitude 15:45:16 46° 78° (ENE) 1,264 4.2 -18.5°
Drops below altitude 10° 15:51:07 10° 151° (SSE) 2,674 6.0 -19.6°
Enters shadow 15:51:46 - 153° (SSE) 2,905 6.2 -19.7°
